Forecast Directory
U.S. Alerts
El Dorado Weather Logo
U.S. Radar Loop Conditions Map

U.S. Color Satellite North America Color Infrared Animated Satellite Loop

Interactive Wx Map Live U.S. Google Map Radar Thumbnail Image

US Precipitation 1 day, 24 hour precipitation map

US Temperatures US Conditions Map

US Climate Data US Conditions Map


NOAA NWS Hourly Roundups by Site
Regional Weather Roundup for Sacramento, CA
Select Site:  

000
ASUS46 KSTO 020615
RWRCA

NORTHERN AND CENTRAL CA REGIONAL WEATHER ROUNDUP
NATIONAL WEATHER SERVICE SACRAMENTO CA
1000 PM PST TUE DEC 01 2020

NOTE: FAIR INDICATES FEW OR NO CLOUDS BELOW 12,000 FEET WITH NO
SIGNIFICANT WEATHER AND/OR OBSTRUCTIONS TO VISIBILITY.

CAZ001-003-020700-
NORTHWEST AREA

CITY           SKY/WX    TMP DP  RH WIND       PRES   REMARKS
CRESCENT CITY  CLEAR     45  42  89 SE6       30.16S
UKIAH          CLEAR     42  36  79 CALM      30.16S
$$

CAZ006-505>513-020700-
BAY AREA

CITY           SKY/WX    TMP DP  RH WIND       PRES   REMARKS
SANTA ROSA     CLEAR     41  37  86 CALM      30.15R
SAN RAFAEL     N/A       MM  MM  MM MISG
NAPA           CLEAR     41  33  73 N6        30.14S
CONCORD        CLEAR     46  35  65 CALM      30.14S
OAKLAND CITY   N/A       51  MM  MM MISG
OAKLAND        PTCLDY    50  43  77 CALM      30.15R
SAN FRAN CITY  N/A       53  MM  64 MISG
SAN FRAN ARPT  PTCLDY    50  39  66 CALM      30.14R
LIVERMORE      CLEAR     44  30  57 E3        30.14R
HAYWARD        CLEAR     50  34  54 E5        30.14R
SAN JOSE ARPT  CLEAR     48  37  65 CALM      30.13F
$$
CAZ034-037-514>518-020700-
CENTRAL COAST

CITY           SKY/WX    TMP DP  RH WIND       PRES   REMARKS
WATSONVILLE    CLEAR     45  39  79 CALM      30.12R
SALINAS        CLEAR     46  42  86 S3        30.11S
MONTEREY       CLEAR     45  39  79 SE5       30.11S
SANTA MARIA    CLEAR     48  41  76 S3        30.07R
HALF MOON BAY  FAIR      48  39  71 NW3       30.13R
$$
CAZ015-016-020700-
NORTHERN SACRAMENTO VALLEY

CITY           SKY/WX    TMP DP  RH WIND       PRES   REMARKS
REDDING        CLEAR     60  27  28 N8        30.13R
RED BLUFF      CLEAR     47  29  49 CALM      30.16R
OROVILLE       CLEAR     48  36  63 E7        30.16R
$$
CAZ016>018-020700-
SOUTHERN SACRAMENTO VALLEY

CITY           SKY/WX    TMP DP  RH WIND       PRES   REMARKS
AUBURN         CLEAR     46  36  66 E5        30.16S
BEALE AFB      CLEAR     44  35  70 E5        30.14R
LINCOLN        FAIR      37  34  87 E6        30.14S WCI  33
MARYSVILLE     CLEAR     43  36  76 CALM      30.16R
SAC INTL ARPT  CLEAR     44  38  79 CALM      30.14S
MATHER AIRPORT NOT AVBL
DOWNTOWN SAC   N/A       44  MM  MM MISG
SAC EXEC ARPT  CLEAR     42  34  73 CALM      30.15R
VACAVILLE      CLEAR     39  33  79 CALM      30.14S
TRAVIS AFB     CLEAR     42  34  74 W6        30.13S
$$
CAZ019>021-020700-
SAN JOAQUIN VALLEY

CITY           SKY/WX    TMP DP  RH WIND       PRES   REMARKS
STOCKTON       CLEAR     47  33  58 E3        30.14R
MODESTO        CLEAR     41  35  79 CALM      30.14R
MERCED         CLEAR     40  34  79 CALM      30.14R HAZE
LEMOORE        PTCLDY    42  25  50 W7        30.14S
FRESNO         CLEAR     47  33  58 CALM      30.15R
HANFORD        CLEAR     39  36  89 NE3       30.15S FOG
PORTERVILLE    CLEAR     42  33  70 E5        30.15S
BAKERSFIELD    CLEAR     47  29  49 CALM      30.13F
$$
CAZ011-012-071-020700-
NORTHERN MOUNTAINS

CITY           SKY/WX    TMP DP  RH WIND       PRES   REMARKS
YREKA          CLEAR     29  22  75 E5        30.31S WCI  24
MOUNT SHASTA   CLEAR     30  23  75 E3        30.27
ALTURAS        CLEAR     22  16  78 CALM      30.35R
$$
CAZ011-012-071-020700-
SIERRA NEVADA MTNS

CITY           SKY/WX    TMP DP  RH WIND       PRES   REMARKS
BLUE CANYON    CLEAR     52  11  19 NE5       30.22S
TRUCKEE        CLEAR     21  21 100 CALM      30.36F
TAHOE VLY ARPT CLEAR     25  21  85 S3        30.33R
MAMMOTH LAKES  FAIR      28  10  47 N6        30.35R WCI  22
$$



 

View Past Reports for Sacramento, CA.

Products Courtesy of NOAA-NWS
NWS Information Parsing Script by Ken True at Saratoga Weather - Script by SE Lincoln Weather.



Contact Us | Mobile
Never base any life decisions on weather information from this site or anywhere over the Internet.
Site is dedicated to our Lord & Savior Jesus Christ | Random Quotes of Jesus

Copyright © 2020 El Dorado Weather, Inc. | Site Designed By:  El Dorado Weather